PP5MGT-13 Weather Reports


time (UTC)temp
C
wind
direction
speed
KPH
gust
KPH
rain 1hr
cm
rain 24hr
cm
rain mn
cm
humidity
%
barometer
mb
20260508035657 22 0.0 0.0 0.00 0.00 0.00 91 1008.6
20260508034156 22 0.0 0.0 0.00 0.00 0.00 90 1008.7
20260508032655 22 0.0 0.0 0.00 0.00 0.00 90 1008.8
20260508031154 22 0.0 0.0 0.00 0.00 0.00 90 1008.9
20260508025654 22 0.0 0.0 0.00 0.00 0.00 90 1009.3
20260508024153 -17 0.0 0.0 0.00 0.00 0.00 90 1009.3
20260508022652 22 0.0 0.0 0.00 0.00 0.00 89 1009.4
20260508021151 22 0.0 0.0 0.00 0.00 0.00 89 1009.5
20260508015651 23 0.0 0.0 0.00 0.00 0.00 89 1009.2
20260508014150 23 0.0 0.0 0.00 0.00 0.00 89 1009.1
20260508012649 23 0.0 0.0 0.00 0.00 0.00 89 1009.1
20260508011148 -17 0.0 0.0 0.00 0.00 0.00 89 1009.1
20260508005647 23 0.0 0.0 0.00 0.00 0.00 89 1009.2
20260508004147 23 0.0 0.0 0.00 0.00 0.00 89 1009.3
20260508002646 23 0.0 0.0 0.00 0.00 0.00 89 1009.4
20260508001145 23 0.0 0.0 0.00 0.00 0.00 89 1009.4
20260507235645 23 0.0 0.0 0.00 0.00 0.00 88 1009.2
20260507234144 -17 0.0 0.0 0.00 0.00 0.00 88 1009.1
20260507232643 -17 0.0 0.0 0.00 0.00 0.00 88 1009.1
20260507231142 23 0.0 0.0 0.00 0.00 0.00 88 1009.0
20260507225640 -17 0.0 0.0 0.00 0.00 0.00 86 1008.9
20260507224139 -17 0.0 0.0 0.00 0.00 0.00 86 1008.9
20260507222639 -17 0.0 0.0 0.00 0.00 0.00 85 1008.9
20260507221138 23 0.0 0.0 0.00 0.00 0.00 85 1008.7
20260507215637 25 0.0 0.0 0.00 0.00 0.00 80 1008.2
20260507214137 25 0.0 0.0 0.00 0.00 0.00 79 1008.2
20260507212636 -17 0.0 0.0 0.00 0.00 0.00 78 1008.1
20260507211135 26 0.0 0.0 0.00 0.00 0.00 76 1008.0
20260507205634 26 0.0 0.0 0.00 0.00 0.00 73 1007.5
20260507204134 26 0.0 0.0 0.00 0.00 0.00 72 1007.5
20260507202633 27 0.0 0.0 0.00 0.00 0.00 72 1007.4
20260507201133 27 0.0 0.0 0.00 0.00 0.00 71 1007.3
20260507195632 -17 0.0 0.0 0.00 0.00 0.00 69 1007.3
20260507194131 27 0.0 0.0 0.00 0.00 0.00 69 1007.3
20260507192630 -17 0.0 0.0 0.00 0.00 0.00 68 1007.3
20260507191129 -17 0.0 0.0 0.00 0.00 0.00 68 1007.4
20260507185628 -17 0.0 0.0 0.00 0.00 0.00 67 1007.5
20260507184127 -17 0.0 0.0 0.00 0.00 0.00 67 1007.5
20260507182627 28 0.0 0.0 0.00 0.00 0.00 66 1007.6
20260507181126 -17 0.0 0.0 0.00 0.00 0.00 67 1007.6
20260507175625 28 0.0 0.0 0.00 0.00 0.00 66 1008.2
20260507174123 27 0.0 0.0 0.00 0.00 0.00 66 1008.3
20260507172623 27 0.0 0.0 0.00 0.00 0.00 66 1008.5
20260507171122 27 0.0 0.0 0.00 0.00 0.00 66 1008.5
20260507165621 27 0.0 0.0 0.00 0.00 0.00 68 1009.3
20260507164120 -17 0.0 0.0 0.00 0.00 0.00 68 1009.6
20260507162620 -17 0.0 0.0 0.00 0.00 0.00 68 1009.8
20260507161118 -17 0.0 0.0 0.00 0.00 0.00 68 1010.0
20260507155618 -17 0.0 0.0 0.00 0.00 0.00 71 1011.1
20260507154117 -17 0.0 0.0 0.00 0.00 0.00 71 1011.3
20260507154115 26 0.0 0.0 0.00 0.00 0.00 71 1011.3
20260507152616 -17 0.0 0.0 0.00 0.00 0.00 71 1011.5
20260507151116 -17 0.0 0.0 0.00 0.00 0.00 72 1011.7
20260507151114 26 0.0 0.0 0.00 0.00 0.00 72 1011.7
20260507145615 -17 0.0 0.0 0.00 0.00 0.00 74 1012.8
20260507145613 25 0.0 0.0 0.00 0.00 0.00 74 1012.8
20260507144115 -17 0.0 0.0 0.00 0.00 0.00 75 1013.0
20260507144113 25 0.0 0.0 0.00 0.00 0.00 75 1013.0
20260507142614 -17 0.0 0.0 0.00 0.00 0.00 75 1013.1
20260507142612 25 0.0 0.0 0.00 0.00 0.00 75 1013.1
20260507141113 -17 0.0 0.0 0.00 0.00 0.00 75 1013.2
20260507141111 25 0.0 0.0 0.00 0.00 0.00 75 1013.2
20260507135613 -17 0.0 0.0 0.00 0.00 0.00 79 1014.0
20260507135610 24 0.0 0.0 0.00 0.00 0.00 79 1014.0
20260507134112 -17 0.0 0.0 0.00 0.00 0.00 80 1014.1
20260507134109 24 0.0 0.0 0.00 0.00 0.00 80 1014.1
20260507132611 -17 0.0 0.0 0.00 0.00 0.00 82 1014.2
20260507132608 24 0.0 0.0 0.00 0.00 0.00 82 1014.2
20260507131111 -17 0.0 0.0 0.00 0.00 0.00 82 1014.2
20260507131108 23 0.0 0.0 0.00 0.00 0.00 82 1014.2
20260507125610 -17 0.0 0.0 0.00 0.00 0.00 85 1014.4
20260507125607 23 0.0 0.0 0.00 0.00 0.00 85 1014.4
20260507124109 -17 0.0 0.0 0.00 0.00 0.00 86 1014.4
20260507124106 23 0.0 0.0 0.00 0.00 0.00 86 1014.4
20260507122609 -17 0.0 0.0 0.00 0.00 0.00 86 1014.5
20260507122605 23 0.0 0.0 0.00 0.00 0.00 86 1014.5
20260507121104 23 0.0 0.0 0.00 0.00 0.00 86 1014.5
20260507115602 22 0.0 0.0 0.00 0.00 0.00 89 1014.6
20260507114101 22 0.0 0.0 0.00 0.00 0.00 90 1014.6
20260507112601 22 0.0 0.0 0.00 0.00 0.00 91 1014.5
20260507111100 22 0.0 0.0 0.00 0.00 0.00 92 1014.5
20260507105559 22 0.0 0.0 0.00 0.00 0.00 93 1014.5
20260507104058 22 0.0 0.0 0.00 0.00 0.00 93 1014.5
20260507102556 22 0.0 0.0 0.00 0.00 0.00 94 1014.5
20260507101055 22 0.0 0.0 0.00 0.00 0.00 94 1014.5
20260507095554 22 0.0 0.0 0.00 0.00 0.00 95 1014.3
20260507094053 -17 0.0 0.0 0.00 0.00 0.00 95 1014.3
20260507092553 -17 0.0 0.0 0.00 0.00 0.00 95 1014.3
20260507091050 22 0.0 0.0 0.00 0.00 0.00 95 1014.4
20260507085548 22 0.0 0.0 0.00 0.00 0.00 95 1014.0
20260507084047 -17 0.0 0.0 0.00 0.00 0.00 95 1014.0
20260507082547 -17 0.0 0.0 0.00 0.00 0.00 95 1014.0
20260507081046 -17 0.0 0.0 0.00 0.00 0.00 95 1014.0
20260507075544 22 0.0 0.0 0.00 0.00 0.00 96 1014.2
20260507074042 22 0.0 0.0 0.00 0.00 0.00 96 1014.2
20260507072542 22 0.0 0.0 0.00 0.00 0.00 96 1014.2
20260507071041 22 0.0 0.0 0.00 0.00 0.00 96 1014.2
20260507065540 22 0.0 0.0 0.00 0.00 0.00 96 1014.6
20260507064037 22 0.0 0.0 0.00 0.00 0.00 96 1014.7
20260507062535 22 0.0 0.0 0.00 0.00 0.00 96 1014.8
20260507061033 -17 0.0 0.0 0.00 0.00 0.00 96 1014.8
20260507055533 -17 0.0 0.0 0.00 0.00 0.00 95 1015.3
20260507054031 22 0.0 0.0 0.00 0.00 0.00 95 1015.4
20260507052530 22 0.0 0.0 0.00 0.00 0.00 95 1015.6
20260507051030 22 0.0 0.0 0.00 0.00 0.00 95 1015.6
20260507045529 22 0.0 0.0 0.00 0.00 0.00 94 1016.2
20260507044028 22 0.0 0.0 0.00 0.00 0.00 94 1016.3
20260507042527 22 0.0 0.0 0.00 0.00 0.00 94 1016.3
20260507041026 22 0.0 0.0 0.00 0.00 0.00 94 1016.3